User: anonymous   Login
Location: Potomac
(46.8816°N, 113.5795°W)
Time: 12:27:50
(UTC+00:00)
Language:

QB50P2 - Orbit

View from above orbital plane
View from above orbital plane
View from above satellite
View from above satellite

Ground track
Ground track

The orbit data is extracted from the following two-line orbital elements,

1 40032U 14033Y   22179.09498225  .00001390  00000-0  15003-3 0  9995
2 40032  97.9383 111.9184 0012408  26.8589 333.3269 14.89964225435728
Epoch (UTC): 28 June 2022 02:16:46
Eccentricity: 0.0012408
inclination: 97.9383°
perigee height: 589 km
apogee height: 607 km
right ascension of ascending node: 111.9184°
argument of perigee: 26.8589°
revolutions per day: 14.89964225
mean anomaly at epoch: 333.3269°
orbit number at epoch: 43572

The dashed part of the orbit path shows where the satellite is in the earth's shadow,  

DLR